Flag for Lithuania Weather past 2 weeks in Kaunas, Lithuania

Now
37 °F

Fog.


Feels Like: 31 °F
Forecast: 39 / 44 °F
Wind: 8 mph from South

Location: Kaunas

Current Time: Mar 1, 2015 at 9:46:17 AM

Latest Report: Mar 1, 2015 at 9:20 AM


Visibility: 0 mi

Pressure: 29.98 "Hg

Humidity: 93%

Dew point: 36 °F

Location of KaunasLocation

Historic Weather in Kaunas — Graph

°F

Kaunas temperature yesterday

Maximum temperature yesterday: 39 °F (at 12:50 PM)
Minimum temperature yesterday: 30 °F (at 10:20 PM)
Average temperature yesterday: 35 °F

Past Weeks' High & Low Weather Summary

 TemperatureHumidityPressure
High45 °F (Feb 21, 12:50 PM)100% (Feb 15, 5:20 AM)30.77 "Hg (Feb 15, 5:20 AM)
Low16 °F (Feb 16, 7:20 AM)19% (Feb 16, 2:50 PM)29.53 "Hg (Feb 21, 7:20 PM)
Average34 °F74%30.10 "Hg
* Reported Feb 14 8:20 AM — Mar 1 8:50 AM, Kaunas, Weather by CustomWeather, © 2015

Note: Actual official high and low records may vary slightly from our data, if they occured in-between our weather recording intervals... More about our weather records

Advertising

Kaunas weather history for previous 24 hours

 ConditionsComfort  
Time TempWeatherWind HumidityBarometerVisibility
8:50 AM
Sun, Mar 1
37 °FFog.6 mph93%29.98 "Hg0 mi
8:20 AM37 °FFog.6 mph93%29.98 "Hg0 mi
7:50 AM37 °FFog.6 mph93%29.98 "Hg1 mi
7:20 AM37 °FFog.6 mph93%29.98 "Hg1 mi
6:50 AM37 °FFog.6 mph87%29.98 "Hg2 mi
6:20 AM37 °FFog.6 mph87%29.98 "Hg2 mi
5:50 AM37 °FFog.6 mph87%29.98 "Hg3 mi
5:20 AM37 °FFog.5 mph87%30.01 "Hg3 mi
4:50 AM37 °FFog.3 mph87%30.01 "Hg3 mi
4:20 AM36 °FFog.6 mph93%30.01 "Hg3 mi
3:50 AM36 °FFog.5 mph93%30.01 "Hg2 mi
3:20 AM36 °FFog.3 mph93%30.01 "Hg2 mi
2:50 AM34 °FFog.2 mph100%30.01 "Hg2 mi
2:20 AM36 °FFog.5 mph93%30.01 "Hg3 mi
1:50 AM34 °FFog.3 mph93%30.04 "Hg3 mi
1:20 AM34 °FFog.3 mph93%30.04 "Hg2 mi
12:50 AM34 °FFog.3 mph93%30.04 "Hg2 mi
12:20 AM34 °FFog.5 mph93%30.04 "Hg2 mi
11:50 PM
Sat, Feb 28
34 °FFog.3 mph93%30.04 "Hg1 mi
11:20 PM32 °FIce fog.5 mph93%30.04 "Hg1 mi
10:50 PM30 °FIce fog.2 mph93%30.04 "Hg0 mi
10:20 PM30 °FIce fog.3 mph93%30.04 "Hg1 mi
9:50 PM32 °FSleet. Ice fog.2 mph93%30.04 "Hg1 mi
9:20 PM34 °FSleet. Fog.3 mph93%30.04 "Hg2 mi
8:50 PM36 °FSleet. Fog.5 mph87%30.04 "Hg2 mi
8:20 PM36 °FFog.3 mph93%30.04 "Hg3 mi
7:50 PM36 °FFog.2 mph93%30.04 "Hg2 mi
7:20 PM37 °FFog.2 mph87%30.04 "Hg2 mi
6:50 PM37 °FFog.2 mph87%30.04 "Hg3 mi
6:20 PM37 °FOvercast.2 mph87%30.04 "Hg4 mi
5:50 PM37 °FOvercast.3 mph87%30.04 "Hg5 mi
5:20 PM37 °FLight rain. Overcast.5 mph87%30.04 "Hg6 mi
4:50 PM39 °FLight rain. Mostly cloudy.3 mph81%30.04 "Hg6 mi
4:20 PM39 °FLight rain. Overcast.3 mph81%30.04 "HgN/A
3:50 PM39 °FOvercast.3 mph81%30.01 "Hg5 mi
3:20 PM39 °FOvercast.3 mph81%30.01 "Hg6 mi
2:50 PM39 °FOvercast.5 mph75%30.01 "Hg6 mi
2:20 PM39 °FOvercast.3 mph81%30.01 "HgN/A
1:50 PM37 °FMostly cloudy.3 mph87%30.01 "HgN/A
1:20 PM37 °FCloudy.3 mph81%30.01 "HgN/A
12:50 PM39 °FMore clouds than sun.1 mph75%30.01 "HgN/A
12:20 PM37 °FCloudy.No wind87%30.01 "Hg6 mi
11:50 AM36 °FMostly cloudy.2 mph93%30.01 "Hg4 mi
11:20 AM36 °FFog.1 mph93%30.01 "Hg1 mi
10:50 AM36 °FFog.5 mph93%30.01 "Hg1 mi
10:20 AM36 °FFog.3 mph93%30.01 "Hg2 mi
9:50 AM36 °FFog.5 mph93%30.01 "Hg1 mi
9:20 AM34 °FFog.5 mph100%30.01 "Hg1 mi
Weather by CustomWeather, © 2015

See weather overviewHow to use our weather pages